Location: Newark
(51.0500°N, 12.4500°E)
Time: 01:26:49
(UTC+00:00)

Vanguard 1 - Pass Details

Date: 25 February 2020
Orbit: 649 x 3833 km, 34.2° (Epoch: 08 April)

Event Time Altitude Azimuth Distance (km) Brightness Sun altitude
Rises 04:34:09 0° 200° (SSW) 7,803 14.4 -14.9°
Reaches altitude 10° 04:41:04 10° 189° (S) 6,917 14.2 -13.9°
Maximum altitude 04:57:14 25° 145° (SE) 5,470 14.3 -11.3°
Drops below altitude 10° 05:10:47 10° 100° (E) 5,813 15.6 -9.2°
Sets 05:15:45 0° 88° (E) 6,383 16.6 -8.4°
